EHI
0 0 0 0 0 0 0 0 0 0 0 0 0 0 0 0 0 0 1 2 2 1 0 0 1 2 2 2 2 2 2 1 0 0 0 0 0 0 0 0 0 0 0
0 0 0 0 0 0 0 0 0 0 0 0 0 0 0 0 0 0 1 2 2 2 1 1 2 1 1 1 1 1 1 0 0 0 0 0 0 0 0 0 0 0 0
0 0 0 0 0 0 0 0 0 0 0 0 0 0 0 0 0 0 0 1 1 2 2 2 2 1 0 0 0 0 0 0 0 0 0 0 0 0 0 0 0 0 0
0 0 0 0 0 0 0 0 0 0 0 0 0 0 0 0 0 0 0 0 0 1 1 2 2 1 0 0 0 0 0 0 0 0 0 0 0 0 0 0 0 0 0
0 0 0 0 0 0 0 0 0 0 0 0 0 0 0 0 0 0 0 0 0 0 0 1 1 1 0 0 0 0 0 0 0 0 0 0 0 0 0 0 0 0 0
0 0 0 0 0 0 0 0 0 0 0 0 0 0 0 0 0 0 0 0 0 0 0 0 0 0 0 0 0 0 0 0 0 0 0 0 0 0 0 0 0 0 0
0 0 0 0 0 0 0 0 0 0 0 0 0 0 0 0 0 0 0 0 0 0 0 0 0 0 0 0 0 0 0 0 0 0 0 0 0 0 0 0 0 0 0
0 0 0 0 0 0 0 0 0 0 0 0 0 0 0 0 0 0 0 0 0 0 0 0 0 0 0 0 0 0 0 0 0 0 0 0 0 0 0 0 0 0 0
0 0 0 0 0 0 0 0 0 0 0 0 0 0 0 0 0 0 0 0 0 0 0 0 0 0 0 0 0 0 0 0 0 0 0 0 0 0 0 0 0 0 0
0 0 0 0 0 0 0 0 0 0 0 0 0 0 0 0 0 0 0 0 0 0 0 0 0 0 0 0 0 0 0 0 0 0 0 0 0 0 0 0 0 0 0
0 0 0 0 0 0 0 0 0 0 0 0 0 0 0 0 0 0 0 0 0 0 0 0 0 0 0 0 0 0 0 0 0 0 0 0 0 0 0 0 0 0 0
0 0 0 0 0 0 0 0 0 0 0 0 0 0 0 0 0 0 0 0 0 0 0 0 0 0 0 0 0 0 0 0 0 0 0 0 0 0 0 0 0 0 0
0 0 0 0 0 0 0 0 0 0 0 0 0 0 0 0 0 0 0 0 0 0 0 0 0 0 0 0 0 0 0 0 0 0 0 0 0 0 0 0 0 0 0
0 0 0 0 0 0 0 0 0 0 0 0 0 0 0 0 0 0 0 0 0 0 0 0 0 0 0 0 0 0 0 0 0 0 0 0 0 0 0 0 0 0 0
0 0 0 0 0 0 0 0 0 0 0 0 0 0 0 0 0 0 0 0 0 0 0 0 0 0 0 0 0 0 0 0 0 0 0 0 0 0 0 0 0 0 0
0 0 0 0 0 0 0 0 0 0 0 0 0 0 0 0 0 0 0 0 0 0 0 0 0 0 0 0 0 0 0 0 0 0 0 0 0 0 0 0 0 0 0
0 0 0 0 0 0 0 0 0 0 0 0 0 0 0 0 0 0 0 0 0 0 0 0 0 0 0 0 0 0 0 0 0 0 0 0 0 0 0 0 0 0 0
0 0 0 0 0 0 0 0 0 0 0 0 0 0 0 0 0 0 0 0 0 0 0 0 0 0 0 0 0 0 0 0 0 0 0 0 0 0 0 0 0 0 0
0 0 0 0 0 0 0 0 0 0 0 0 0 0 0 0 0 0 0 0 0 0 0 0 0 0 0 0 0 0 0 0 0 0 0 0 0 0 0 0 0 0 0
0 0 0 0 0 0 0 0 0 0 0 0 0 0 0 0 0 0 0 0 0 0 0 0 0 0 0 0 0 0 0 0 0 0 0 0 0 0 0 0 0 0 0
0 0 0 0 0 0 0 0 0 0 0 0 0 0 0 0 0 0 0 0 0 0 0 0 0 0 0 0 0 0 0 0 0 0 0 0 0 0 0 0 0 0 0
0 0 0 0 0 0 0 0 0 0 0 0 0 0 0 0 0 0 0 0 0 0 0 0 0 0 0 0 0 0 0 0 0 0 0 0 0 0 0 0 0 0 0
0 0 0 0 0 0 0 0 0 0 0 0 0 0 0 0 0 0 0 0 0 0 0 0 0 0 0 0 0 0 0 0 0 0 0 0 0 0 0 0 0 0 0
0 0 0 0 0 0 0 0 0 0 0 0 0 0 0 0 0 0 0 0 0 0 0 0 0 0 0 0 0 0 0 0 0 0 0 0 0 0 0 0 0 0 0
0 0 0 0 0 0 0 0 0 0 0 0 0 0 0 0 0 0 0 0 0 0 0 0 0 0 0 0 0 0 0 0 0 0 0 0 0 0 0 0 0 0 0
0 0 0 0 0 0 0 0 0 0 0 0 0 0 0 0 0 0 0 0 0 0 0 0 0 0 0 0 0 0 0 0 0 0 0 0 0 0 0 0 0 0 0
Wind_Speed
5 4 3 3 3 3 3 2 1 1 3 5 5 5 5 4 3 3 3 7 7 7 8 8 7 7 6 6 6 7 7 6 6 6 6 5 4 4 3 3 3 3 3
6 5 5 4 4 4 3 2 2 3 4 5 5 5 5 4 4 4 3 5 7 7 7 8 8 7 7 7 6 6 5 5 5 5 5 4 3 3 2 2 2 2 3
8 7 5 5 5 4 3 2 3 3 4 4 5 5 4 4 4 4 3 3 4 7 8 8 8 8 7 7 6 5 5 4 4 4 3 3 3 2 2 1 1 2 3
8 7 6 6 5 4 3 4 3 3 3 4 4 3 4 4 4 3 3 3 3 3 6 9 9 8 8 7 6 6 5 4 3 3 2 2 2 2 1 1 0 1 2
7 7 6 6 5 4 4 5 3 3 3 4 4 3 3 4 4 5 3 3 3 3 3 6 9 9 8 8 7 6 5 4 3 2 2 1 1 2 2 1 0 1 2
5 5 5 6 5 4 4 4 4 3 3 3 4 3 2 3 4 4 4 3 3 3 3 4 4 5 8 8 7 6 5 4 3 3 1 1 1 2 2 2 1 0 1
5 5 4 5 5 5 6 6 4 4 2 2 4 3 3 2 3 3 4 4 4 3 3 3 2 2 3 7 7 7 5 4 4 3 2 1 0 1 1 2 1 1 0
5 5 6 5 5 4 6 6 5 4 2 2 4 3 1 2 1 1 3 4 4 3 4 4 3 3 2 2 3 6 7 5 4 4 3 2 1 1 1 1 2 1 0
5 5 5 5 5 5 6 6 7 7 4 2 3 5 4 3 2 1 3 3 4 3 3 4 4 3 3 2 2 4 6 6 4 4 4 3 2 1 1 1 2 1 1
5 6 6 6 5 4 6 7 6 5 6 4 2 2 3 4 3 1 1 2 3 4 4 4 5 5 4 3 3 3 4 5 5 4 4 4 3 2 1 1 1 1 1
4 5 6 5 6 5 6 6 5 5 5 5 4 3 2 1 2 3 2 2 2 2 3 5 5 5 4 4 3 4 4 3 3 4 5 5 4 3 1 1 1 1 2
3 5 5 6 6 5 6 6 6 7 5 5 4 4 4 4 3 3 2 2 3 3 3 3 5 5 5 4 5 7 5 3 2 3 4 5 5 5 3 2 2 2 2
2 3 4 5 5 5 6 6 6 6 7 7 6 4 4 4 4 4 3 1 2 2 2 3 4 5 6 4 4 9 7 5 3 2 2 4 5 6 6 5 4 5 5
2 2 3 4 4 5 5 5 4 6 5 6 6 6 4 4 4 4 4 3 2 2 2 4 3 5 5 5 6 9 5 7 5 3 2 2 3 5 6 7 7 7 7
2 2 3 3 3 3 4 5 4 5 5 6 6 6 5 4 4 4 4 4 5 4 5 4 3 5 4 4 8 6 5 8 7 5 3 2 2 3 4 5 6 7 7
2 2 2 3 3 3 3 3 3 3 4 5 5 6 6 4 5 4 4 4 4 4 4 4 4 3 5 6 10 6 6 11 10 7 5 4 2 2 2 3 4 5 5
3 3 3 3 3 3 3 3 3 3 4 4 4 6 7 6 5 5 4 4 3 3 3 2 2 2 5 6 6 5 4 5 5 9 8 6 5 3 2 0 1 2 3
4 3 3 3 3 3 3 3 3 3 3 4 4 4 5 5 6 5 5 4 3 3 3 2 2 2 4 5 6 6 5 6 4 9 10 9 7 6 4 3 1 1 1
4 4 4 4 4 3 3 3 3 3 3 3 3 4 4 5 6 5 6 5 3 3 3 3 2 2 1 3 3 3 4 3 5 7 10 10 9 8 7 5 4 3 1
5 5 5 5 5 4 4 4 4 3 3 3 3 3 3 4 5 5 5 5 5 4 3 3 2 2 2 2 3 3 3 3 4 5 6 6 9 9 9 8 7 6 4
5 5 5 5 5 4 5 5 5 5 4 3 3 3 3 5 6 5 4 5 5 4 3 3 3 2 3 3 4 4 5 3 3 3 3 4 4 4 5 8 10 9 7
3 4 5 5 5 6 8 11 8 5 5 5 4 4 4 5 8 9 9 9 8 6 5 4 3 4 5 4 4 4 4 3 4 4 5 4 4 5 5 4 8 10 10
2 3 4 5 6 7 10 12 13 6 5 5 5 4 4 5 8 5 7 10 9 11 10 6 5 6 5 6 5 5 6 6 6 4 5 4 4 5 5 7 14 14 13
1 2 3 4 5 7 11 11 12 7 5 5 5 5 6 5 5 7 6 5 6 7 8 7 7 7 7 6 7 7 7 6 2 3 6 5 4 5 4 6 13 16 14
1 1 2 3 4 6 9 10 9 4 3 4 4 4 5 5 8 9 6 6 5 5 7 10 10 10 11 10 8 4 4 4 4 4 5 4 3 3 2 4 8 15 16
2 2 1 1 2 4 6 7 8 3 3 2 2 2 5 6 6 7 6 5 6 5 3 3 5 6 6 6 9 7 6 5 3 4 5 6 4 3 2 3 3 5 8
Wind_Direction
178 185 195 206 221 230 236 245 248 213 124 126 134 128 115 105 94 76 78 97 104 114 120 119 118 119 125 133 142 147 148 150 152 153 151 152 150 140 128 106 84 63 45
183 188 196 203 220 229 230 208 185 147 121 120 126 127 124 119 102 91 76 82 93 100 109 114 114 115 116 120 126 137 147 151 156 158 161 165 165 159 149 121 83 58 38
187 189 195 202 212 222 216 173 161 125 111 111 123 134 135 131 120 106 93 79 81 88 96 102 105 108 110 112 115 121 131 140 147 157 167 176 180 179 178 149 78 48 32
184 187 192 202 203 195 175 159 151 122 114 119 131 147 143 138 134 125 101 90 80 77 83 92 91 94 98 102 107 110 114 119 127 143 163 186 201 208 215 194 60 34 25
185 183 190 198 192 175 167 165 152 142 136 135 138 131 138 149 153 149 138 123 111 101 84 85 83 79 82 86 95 101 106 110 117 129 147 179 214 227 232 215 240 17 19
190 185 191 194 186 170 168 161 150 144 143 146 124 100 106 146 160 160 165 155 144 134 113 96 78 72 74 70 71 81 91 95 95 99 115 165 225 247 240 230 232 329 25
184 186 197 193 185 180 177 160 143 141 129 120 93 65 28 61 137 164 162 159 168 164 141 135 114 93 73 62 53 60 66 77 77 74 70 60 292 283 262 242 235 238 48
190 194 197 195 188 181 176 168 146 137 139 136 127 110 56 3 8 149 170 175 178 169 175 175 152 133 110 81 59 54 42 55 66 61 54 34 360 312 292 265 261 262 303
195 197 197 197 194 182 181 179 161 148 154 162 147 144 152 199 246 272 211 196 179 176 185 173 175 165 151 125 90 52 44 35 49 49 40 28 13 341 314 285 271 258 283
199 196 190 192 192 189 186 187 175 162 151 160 165 156 148 153 152 198 279 250 210 192 187 179 175 175 169 157 140 114 68 39 38 37 33 26 18 358 300 293 304 283 273
207 199 192 190 189 192 194 191 179 171 165 165 163 154 140 139 134 146 202 241 256 232 200 181 171 171 175 170 157 152 117 66 46 35 27 23 21 24 29 29 338 321 298
203 201 195 197 194 192 194 194 184 182 186 177 172 162 156 158 170 154 164 207 220 239 213 189 177 176 178 178 181 166 155 133 96 57 36 28 26 25 23 26 17 4 360
206 203 191 196 197 196 192 187 186 189 187 187 184 181 170 167 154 148 146 186 220 243 200 207 198 180 182 180 184 173 171 165 152 114 59 42 36 35 35 38 38 44 40
208 199 185 191 198 194 190 184 189 196 190 196 199 188 178 180 166 161 158 157 185 225 221 220 193 192 184 179 187 177 176 177 174 165 128 67 51 47 47 50 48 44 39
182 161 159 166 178 182 184 180 194 202 196 199 200 193 189 186 178 172 165 167 171 191 220 221 202 195 181 178 183 177 176 187 184 183 177 147 90 66 55 53 49 43 39
140 133 133 137 141 151 167 177 188 191 192 199 196 195 197 192 183 175 176 179 177 175 208 220 210 190 178 186 189 181 187 190 191 191 192 185 164 120 76 56 44 39 34
157 156 155 147 147 147 149 158 173 171 185 197 200 201 205 191 182 179 173 172 179 168 194 228 212 188 171 175 174 179 187 192 195 199 199 199 195 194 195 171 32 29 28
177 178 171 167 169 163 156 157 165 166 181 195 199 200 204 192 183 175 170 173 178 174 178 200 210 185 184 182 171 179 190 195 196 206 205 205 206 209 215 224 239 321 12
191 190 185 192 195 185 177 174 167 166 178 189 192 194 193 183 178 172 168 171 176 180 172 183 207 201 172 151 146 182 190 194 202 211 210 211 212 215 220 224 227 233 243
199 202 204 207 204 197 191 187 179 176 181 187 186 185 178 176 173 169 170 171 169 171 174 180 194 205 194 154 149 169 188 203 206 201 206 204 213 220 223 224 226 225 223
210 208 209 214 208 201 204 195 190 188 187 192 195 194 193 194 193 187 179 173 169 174 178 191 197 189 188 170 192 185 195 185 212 197 191 205 204 216 222 227 227 225 218
230 210 209 211 211 218 212 200 192 193 191 195 204 209 215 218 218 216 210 197 186 185 192 196 199 204 207 204 189 182 174 166 226 208 181 218 193 217 218 216 224 223 219
244 226 219 212 217 227 222 208 200 189 193 201 205 207 222 224 221 221 229 227 220 216 207 197 206 215 210 206 189 190 191 196 211 184 168 216 199 225 217 220 220 221 220
272 238 233 226 224 232 228 215 201 190 196 207 209 209 218 233 221 210 213 222 229 231 227 223 222 227 224 212 200 202 203 210 212 177 168 201 202 218 216 211 221 217 215
315 281 252 230 227 244 231 215 190 172 192 211 220 217 214 225 235 219 205 220 236 245 244 236 232 237 236 229 207 187 180 180 219 218 188 197 201 201 217 223 222 217 210
312 313 312 258 228 240 237 215 180 163 179 195 227 242 223 219 230 210 195 204 227 242 240 249 243 248 244 237 216 200 192 190 198 224 195 187 179 155 241 252 216 209 207